Content
SEND FEEDBACK

Daily
Averages
Monthly
Summary
United Kingdom

LONDON, ENGLAND


Home > Europe > United Kingdom > England
Elevation: 61 meters     Latitude: 51 09N     Longitude: 000 11W

WEATHER
 
SELECT A DAY
Number of Records: 293,844;   Date Range: 7/1/96 - 8/28/14
 
SHARE

PRINT THIS DATA

[ ← Previous Day ]
WEATHER ALMANAC - 22 DECEMBER, 2013
[ Next Day → ]
[ °F ]   °C
Weather ElementAverageHighLow
Temperature7.7 °C10 °C (6:50 am)5 °C (9:20 pm)
Dewpoint4.3 °C7 °C (6:50 am)1 °C (9:50 pm)
Humidity79.1 %87 % (4:50 am)66 % (3:20 pm)
Barometer1010.5 hPa1014.2 hPa (9:50 pm)1008.1 hPa (6:50 am)
Wind Speed17.2 km/h31.5 km/h (7:50 am)
Wind Gust50.1 km/h (7:20 am)
Weather ElementAverage
Visibility9.7 km
Wind DirectionSW (225.5 °)

Weather ElementTotal
Precipitation---
Heating Degree Days10.8 (Base 18.3)
Averaged from 47 records on 22 December, 2013
WEATHER CONDITIONS BREAKOUT
WIND DIRECTION BREAKOUT
WEATHER BY HOUR - 22 DECEMBER, 2013
[ °F ]   °C
Local TimeTemperatureDewpointHumidityBarometerVisibilityWind DirectionWind SpeedGust SpeedPrecipitationEventsConditions
12:50 AM9 °C5 °C76 %1011.2 hPa10 kmSW (230°)16.7 km/hPartly Cloudy
1:20 AM8 °C5 °C81 %1011.2 hPa10 kmSW (220°)13 km/hPartly Cloudy
1:50 AM8 °C5 °C81 %1011.2 hPa10 kmSW (220°)14.8 km/hPartly Cloudy
2:20 AM8 °C5 °C81 %1011.2 hPaSW (220°)14.8 km/hClear
2:50 AM8 °C5 °C81 %1011.2 hPa10 kmSW (220°)11.1 km/hPartly Cloudy
3:20 AM8 °C5 °C81 %1011.2 hPa10 kmSSW (200°)11.1 km/hPartly Cloudy
3:50 AM8 °C5 °C81 %1010.2 hPaSSW (200°)13 km/hClear
4:20 AM8 °C5 °C81 %1010.2 hPa10 kmSSW (210°)16.7 km/hPartly Cloudy
4:50 AM8 °C6 °C87 %1009.1 hPa10 kmSSW (210°)16.7 km/hScattered Clouds
5:20 AM9 °C6 °C82 %1009.1 hPa10 kmSSW (210°)16.7 km/hScattered Clouds
5:50 AM9 °C6 °C82 %1009.1 hPa10 kmSSW (210°)20.4 km/hRainLight Rain
6:20 AM9 °C6 °C82 %1009.1 hPa10 kmSW (220°)24.1 km/h42.6 km/hScattered Clouds
6:50 AM10 °C7 °C82 %1008.1 hPa6.9 kmSSW (210°)24.1 km/hRainLight Rain Showers
7:20 AM9 °C7 °C87 %1008.1 hPa6.9 kmSW (220°)29.6 km/h50.1 km/hRainLight Rain Showers
7:50 AM9 °C7 °C87 %1008.1 hPa9 kmSW (230°)31.5 km/h50.1 km/hRainLight Rain Showers
8:20 AM8 °C6 °C87 %1009.1 hPa8 kmSW (230°)24.1 km/hRainRain Showers
8:50 AM8 °C6 °C87 %1009.1 hPa10 kmSW (220°)18.5 km/hScattered Clouds
9:20 AM8 °C6 °C87 %1009.1 hPa8 kmSW (220°)20.4 km/h40.7 km/hRainLight Rain Showers
9:50 AM8 °C6 °C87 %1009.1 hPa9 kmSW (220°)16.7 km/hRainLight Rain Showers
10:20 AM8 °C6 °C87 %1009.1 hPa10 kmSSW (210°)16.7 km/hPartly Cloudy
10:50 AM8 °C6 °C87 %1009.1 hPa10 kmSSW (210°)14.8 km/hPartly Cloudy
11:20 AM9 °C6 °C82 %1009.1 hPa10 kmSW (230°)18.5 km/hPartly Cloudy
11:50 AM9 °C6 °C82 %1009.1 hPa10 kmWSW (240°)22.2 km/hPartly Cloudy
12:20 PM9 °C5 °C76 %1009.1 hPa10 kmWSW (240°)25.9 km/hPartly Cloudy
12:50 PM9 °C5 °C76 %1009.1 hPa10 kmSW (230°)22.2 km/hPartly Cloudy
1:20 PM10 °C5 °C71 %1009.1 hPa10 kmWSW (240°)20.4 km/h38.9 km/hPartly Cloudy
1:50 PM10 °C5 °C71 %1009.1 hPa10 kmSW (230°)22.2 km/hScattered Clouds
2:20 PM9 °C5 °C76 %1009.1 hPa10 kmWSW (250°)16.7 km/hScattered Clouds
2:50 PM9 °C5 °C76 %1009.1 hPa10 kmWSW (250°)13 km/hScattered Clouds
3:20 PM9 °C3 °C66 %1009.1 hPa10 kmWSW (240°)16.7 km/hScattered Clouds
3:50 PM8 °C2 °C66 %1010.2 hPa10 kmSW (230°)13 km/hPartly Cloudy
4:20 PM8 °C3 °C71 %1010.2 hPa10 kmSW (230°)16.7 km/hPartly Cloudy
4:50 PM7 °C3 °C76 %1010.2 hPa10 kmSW (230°)13 km/hPartly Cloudy
5:20 PM7 °C3 °C76 %1011.2 hPaSW (230°)16.7 km/hClear
5:50 PM7 °C2 °C71 %1011.2 hPaWSW (240°)18.5 km/hClear
6:20 PM7 °C2 °C71 %1012.2 hPaWSW (250°)20.4 km/hClear
6:50 PM6 °C2 °C76 %1012.2 hPaWSW (240°)13 km/hClear
7:20 PM6 °C2 °C76 %1012.2 hPaSW (220°)9.3 km/hClear
7:50 PM6 °C2 °C76 %1013.2 hPaSW (230°)13 km/hClear
8:20 PM6 °C2 °C76 %1013.2 hPaSW (230°)13 km/hClear
8:50 PM6 °C2 °C76 %1013.2 hPaSW (230°)13 km/hClear
9:20 PM5 °C2 °C81 %1013.2 hPaSW (230°)14.8 km/hClear
9:50 PM6 °C1 °C70 %1014.2 hPaSW (230°)16.7 km/hClear
10:20 PM5 °C2 °C81 %1014.2 hPaSW (230°)14.8 km/hClear
10:50 PM5 °C2 °C81 %1014.2 hPaSW (220°)14.8 km/hClear
11:20 PM5 °C2 °C81 %1014.2 hPaSW (230°)11.1 km/hClear
11:50 PM5 °C2 °C81 %1014.2 hPa10 kmSSW (210°)9.3 km/hPartly Cloudy
Hourly data recorded from EGKK, located 0 kilometers away from London, England







STORIES FROM OUR PARTNERS